| time (UTC) | temp F | wind direction | speed knots | gust knots | rain 1hr in | rain 24hr in | rain mn in | humidity % | barometer mb |
| 20260504060150 | 58 | 212 | 0.0 | 0.0 | 0.00 | 0.00 | 0.00 | 50 | 1009.9 |
| 20260504050618 | 59 | 242 | 0.0 | 0.0 | 0.00 | 0.00 | 0.00 | 48 | 1010.4 |
| 20260504050115 | 59 | 242 | 0.0 | 0.0 | 0.00 | 0.00 | 0.00 | 48 | 1010.4 |
| 20260504045612 | 59 | 242 | 0.0 | 0.0 | 0.00 | 0.00 | 0.00 | 47 | 1010.3 |
| 20260504045107 | 60 | 243 | 0.0 | 0.9 | 0.00 | 0.00 | 0.00 | 48 | 1010.6 |
| 20260504044605 | 60 | 239 | 0.9 | 0.9 | 0.00 | 0.00 | 0.00 | 48 | 1010.7 |
| 20260504044102 | 60 | 242 | 0.9 | 0.9 | 0.00 | 0.00 | 0.00 | 47 | 1010.7 |
| 20260504043559 | 60 | 246 | 0.0 | 0.0 | 0.00 | 0.00 | 0.00 | 47 | 1010.7 |
| 20260504043056 | 60 | 247 | 0.9 | 0.9 | 0.00 | 0.00 | 0.00 | 47 | 1010.9 |
| 20260504042553 | 60 | 248 | 0.9 | 0.9 | 0.00 | 0.00 | 0.00 | 47 | 1010.9 |
| 20260504042049 | 61 | 253 | 0.9 | 0.9 | 0.00 | 0.00 | 0.00 | 45 | 1010.9 |
| 20260504041545 | 61 | 253 | 0.9 | 0.9 | 0.00 | 0.00 | 0.00 | 46 | 1011.0 |
| 20260504041041 | 61 | 265 | 0.0 | 0.0 | 0.00 | 0.00 | 0.00 | 45 | 1010.9 |
| 20260504040539 | 62 | 264 | 0.0 | 0.9 | 0.00 | 0.00 | 0.00 | 45 | 1011.0 |
| 20260504040035 | 62 | 266 | 0.9 | 0.9 | 0.00 | 0.00 | 0.00 | 44 | 1010.8 |
| 20260504035532 | 62 | 265 | 0.9 | 1.7 | 0.00 | 0.00 | 0.00 | 44 | 1010.9 |
| 20260504035028 | 62 | 264 | 2.6 | 2.6 | 0.00 | 0.00 | 0.00 | 44 | 1011.1 |
| 20260504034526 | 62 | 260 | 0.9 | 1.7 | 0.00 | 0.00 | 0.00 | 44 | 1011.2 |
| 20260504034023 | 63 | 263 | 0.9 | 0.9 | 0.00 | 0.00 | 0.00 | 44 | 1011.1 |
| 20260504033521 | 63 | 259 | 1.7 | 1.7 | 0.00 | 0.00 | 0.00 | 44 | 1011.1 |
| 20260504033018 | 63 | 272 | 0.9 | 1.7 | 0.00 | 0.00 | 0.00 | 44 | 1011.0 |
| 20260504032515 | 63 | 264 | 0.9 | 0.9 | 0.00 | 0.00 | 0.00 | 44 | 1011.2 |
| 20260504032011 | 64 | 268 | 2.6 | 2.6 | 0.00 | 0.00 | 0.00 | 43 | 1011.2 |
| 20260504031509 | 64 | 264 | 0.0 | 0.9 | 0.00 | 0.00 | 0.00 | 43 | 1011.0 |
| 20260504031005 | 64 | 251 | 0.9 | 0.9 | 0.00 | 0.00 | 0.00 | 43 | 1011.2 |
| 20260504030502 | 64 | 263 | 1.7 | 1.7 | 0.00 | 0.00 | 0.00 | 42 | 1011.2 |
| 20260504025958 | 64 | 263 | 0.9 | 1.7 | 0.00 | 0.00 | 0.00 | 42 | 1011.3 |
| 20260504025455 | 64 | 264 | 0.9 | 1.7 | 0.00 | 0.00 | 0.00 | 42 | 1011.0 |
| 20260504024952 | 65 | 260 | 0.9 | 1.7 | 0.00 | 0.00 | 0.00 | 41 | 1011.1 |
| 20260504024449 | 65 | 273 | 1.7 | 1.7 | 0.00 | 0.00 | 0.00 | 41 | 1011.1 |
| 20260504023946 | 66 | 258 | 0.0 | 0.0 | 0.00 | 0.00 | 0.00 | 40 | 1010.9 |
| 20260504023443 | 66 | 263 | 0.0 | 0.9 | 0.00 | 0.00 | 0.00 | 39 | 1011.1 |
| 20260504022938 | 66 | 255 | 0.9 | 0.9 | 0.00 | 0.00 | 0.00 | 39 | 1011.0 |
| 20260504022435 | 67 | 266 | 1.7 | 1.7 | 0.00 | 0.00 | 0.00 | 38 | 1010.8 |
| 20260504021931 | 67 | 277 | 2.6 | 4.3 | 0.00 | 0.00 | 0.00 | 37 | 1010.8 |
| 20260504021429 | 67 | 267 | 1.7 | 1.7 | 0.00 | 0.00 | 0.00 | 37 | 1010.7 |
| 20260504020926 | 67 | 261 | 3.5 | 4.3 | 0.00 | 0.00 | 0.00 | 36 | 1010.9 |
| 20260504020423 | 67 | 258 | 1.7 | 1.7 | 0.00 | 0.00 | 0.00 | 37 | 1010.6 |
| 20260504015919 | 67 | 244 | 0.9 | 0.9 | 0.00 | 0.00 | 0.00 | 37 | 1010.9 |
| 20260504015415 | 67 | 244 | 0.9 | 0.9 | 0.00 | 0.00 | 0.00 | 37 | 1010.5 |
| 20260504014911 | 68 | 259 | 1.7 | 1.7 | 0.00 | 0.00 | 0.00 | 35 | 1010.4 |
| 20260504014407 | 68 | 274 | 3.5 | 4.3 | 0.00 | 0.00 | 0.00 | 35 | 1010.4 |
| 20260504013904 | 68 | 278 | 1.7 | 1.7 | 0.00 | 0.00 | 0.00 | 35 | 1010.3 |
| 20260504013403 | 68 | 266 | 1.7 | 1.7 | 0.00 | 0.00 | 0.00 | 35 | 1010.4 |
| 20260504012859 | 69 | 255 | 0.9 | 0.9 | 0.00 | 0.00 | 0.00 | 35 | 1010.4 |
| 20260504012357 | 69 | 267 | 0.0 | 1.7 | 0.00 | 0.00 | 0.00 | 34 | 1010.5 |
| 20260504011854 | 69 | 266 | 0.9 | 0.9 | 0.00 | 0.00 | 0.00 | 34 | 1010.5 |
| 20260504011350 | 70 | 257 | 0.9 | 1.7 | 0.00 | 0.00 | 0.00 | 33 | 1010.1 |
| 20260504010846 | 70 | 265 | 0.0 | 0.9 | 0.00 | 0.00 | 0.00 | 33 | 1010.4 |
| 20260504010342 | 70 | 283 | 0.9 | 1.7 | 0.00 | 0.00 | 0.00 | 33 | 1010.3 |
| 20260504005839 | 71 | 262 | 5.2 | 6.1 | 0.00 | 0.00 | 0.00 | 32 | 1010.1 |
| 20260504005336 | 71 | 280 | 0.9 | 1.7 | 0.00 | 0.00 | 0.00 | 31 | 1010.4 |
| 20260504004833 | 72 | 266 | 0.9 | 1.7 | 0.00 | 0.00 | 0.00 | 31 | 1010.4 |
| 20260504004331 | 72 | 255 | 2.6 | 2.6 | 0.00 | 0.00 | 0.00 | 30 | 1010.2 |
| 20260504003827 | 73 | 265 | 1.7 | 1.7 | 0.00 | 0.00 | 0.00 | 31 | 1010.2 |
| 20260504003324 | 73 | 284 | 2.6 | 4.3 | 0.00 | 0.00 | 0.00 | 30 | 1010.2 |
| 20260504002821 | 73 | 289 | 2.6 | 2.6 | 0.00 | 0.00 | 0.00 | 30 | 1010.1 |
| 20260504002317 | 74 | 263 | 1.7 | 1.7 | 0.00 | 0.00 | 0.00 | 30 | 1010.1 |
| 20260504001810 | 74 | 282 | 2.6 | 2.6 | 0.00 | 0.00 | 0.00 | 30 | 1010.1 |
| 20260504001307 | 74 | 254 | 1.7 | 2.6 | 0.00 | 0.00 | 0.00 | 29 | 1010.0 |
| 20260504000804 | 74 | 270 | 1.7 | 1.7 | 0.00 | 0.00 | 0.00 | 29 | 1009.8 |
| 20260504000301 | 74 | 263 | 2.6 | 2.6 | 0.00 | 0.00 | 0.00 | 28 | 1010.2 |
| 20260503235759 | 74 | 263 | 0.9 | 0.9 | 0.00 | 0.00 | 0.00 | 29 | 1010.0 |
| 20260503235256 | 75 | 262 | 1.7 | 1.7 | 0.00 | 0.00 | 0.00 | 28 | 1009.7 |
| 20260503234753 | 75 | 272 | 3.5 | 5.2 | 0.00 | 0.00 | 0.00 | 29 | 1010.1 |
| 20260503234245 | 75 | 0 | 4.3 | 6.1 | 0.00 | 0.00 | 0.00 | 28 | 1009.9 |
| 20260503233742 | 75 | 322 | 0.9 | 1.7 | 0.00 | 0.00 | 0.00 | 28 | 1009.7 |
| 20260503233238 | 75 | 333 | 2.6 | 2.6 | 0.00 | 0.00 | 0.00 | 28 | 1009.9 |
| 20260503232735 | 75 | 337 | 4.3 | 6.1 | 0.00 | 0.00 | 0.00 | 28 | 1010.0 |
| 20260503232232 | 75 | 260 | 0.0 | 0.0 | 0.00 | 0.00 | 0.00 | 29 | 1010.1 |
| 20260503231730 | 75 | 324 | 0.9 | 1.7 | 0.00 | 0.00 | 0.00 | 29 | 1010.0 |
| 20260503231227 | 74 | 305 | 2.6 | 2.6 | 0.00 | 0.00 | 0.00 | 29 | 1010.2 |
| 20260503230722 | 75 | 279 | 2.6 | 4.3 | 0.00 | 0.00 | 0.00 | 29 | 1009.8 |
| 20260503230220 | 75 | 299 | 2.6 | 4.3 | 0.00 | 0.00 | 0.00 | 29 | 1010.0 |
| 20260503225712 | 76 | 321 | 2.6 | 4.3 | 0.00 | 0.00 | 0.00 | 29 | 1010.0 |
| 20260503225212 | 76 | 326 | 3.5 | 5.2 | 0.00 | 0.00 | 0.00 | 29 | 1010.0 |
| 20260503224709 | 76 | 248 | 2.6 | 4.3 | 0.00 | 0.00 | 0.00 | 29 | 1009.9 |
| 20260503224207 | 75 | 261 | 0.0 | 0.9 | 0.00 | 0.00 | 0.00 | 30 | 1010.0 |
| 20260503223705 | 75 | 257 | 6.1 | 8.7 | 0.00 | 0.00 | 0.00 | 30 | 1010.0 |
| 20260503223201 | 75 | 292 | 5.2 | 6.1 | 0.00 | 0.00 | 0.00 | 30 | 1010.1 |
| 20260503222658 | 76 | 320 | 4.3 | 6.1 | 0.00 | 0.00 | 0.00 | 30 | 1009.8 |
| 20260503222156 | 76 | 263 | 2.6 | 5.2 | 0.00 | 0.00 | 0.00 | 30 | 1009.8 |
| 20260503221654 | 75 | 259 | 3.5 | 5.2 | 0.00 | 0.00 | 0.00 | 30 | 1009.7 |
| 20260503221151 | 75 | 304 | 2.6 | 4.3 | 0.00 | 0.00 | 0.00 | 30 | 1009.7 |
| 20260503220648 | 76 | 275 | 2.6 | 2.6 | 0.00 | 0.00 | 0.00 | 31 | 1009.7 |
| 20260503220144 | 75 | 314 | 1.7 | 1.7 | 0.00 | 0.00 | 0.00 | 32 | 1009.8 |
| 20260503215642 | 75 | 250 | 5.2 | 7.0 | 0.00 | 0.00 | 0.00 | 31 | 1009.4 |
| 20260503215138 | 76 | 239 | 6.1 | 7.8 | 0.00 | 0.00 | 0.00 | 30 | 1009.4 |
| 20260503214637 | 75 | 1 | 3.5 | 4.3 | 0.00 | 0.00 | 0.00 | 31 | 1009.6 |
| 20260503214132 | 76 | 255 | 5.2 | 7.8 | 0.00 | 0.00 | 0.00 | 31 | 1009.7 |
| 20260503213632 | 76 | 263 | 4.3 | 7.8 | 0.00 | 0.00 | 0.00 | 32 | 1009.6 |
| 20260503213127 | 76 | 273 | 3.5 | 5.2 | 0.00 | 0.00 | 0.00 | 32 | 1009.6 |
| 20260503212625 | 76 | 315 | 5.2 | 7.0 | 0.00 | 0.00 | 0.00 | 31 | 1009.6 |
| 20260503212123 | 76 | 322 | 4.3 | 6.1 | 0.00 | 0.00 | 0.00 | 31 | 1009.6 |
| 20260503211621 | 77 | 298 | 2.6 | 5.2 | 0.00 | 0.00 | 0.00 | 31 | 1009.8 |
| 20260503211116 | 76 | 274 | 1.7 | 2.6 | 0.00 | 0.00 | 0.00 | 32 | 1009.6 |
| 20260503210612 | 75 | 254 | 3.5 | 4.3 | 0.00 | 0.00 | 0.00 | 32 | 1009.9 |
| 20260503210109 | 76 | 296 | 3.5 | 5.2 | 0.00 | 0.00 | 0.00 | 31 | 1009.7 |
| 20260503205604 | 76 | 337 | 8.7 | 14.8 | 0.00 | 0.00 | 0.00 | 32 | 1009.8 |
| 20260503205101 | 76 | 306 | 2.6 | 4.3 | 0.00 | 0.00 | 0.00 | 32 | 1009.7 |
| 20260503204558 | 75 | 304 | 0.9 | 1.7 | 0.00 | 0.00 | 0.00 | 32 | 1009.7 |
| 20260503204055 | 76 | 282 | 8.7 | 11.3 | 0.00 | 0.00 | 0.00 | 30 | 1010.0 |
| 20260503203552 | 76 | 268 | 5.2 | 7.8 | 0.00 | 0.00 | 0.00 | 30 | 1009.8 |
| 20260503203049 | 77 | 318 | 2.6 | 2.6 | 0.00 | 0.00 | 0.00 | 29 | 1009.9 |
| 20260503202547 | 76 | 220 | 0.9 | 0.9 | 0.00 | 0.00 | 0.00 | 31 | 1009.7 |
| 20260503202045 | 76 | 270 | 5.2 | 7.8 | 0.00 | 0.00 | 0.00 | 31 | 1010.1 |
| 20260503201543 | 75 | 259 | 4.3 | 7.8 | 0.00 | 0.00 | 0.00 | 33 | 1009.8 |
| 20260503201040 | 75 | 272 | 3.5 | 5.2 | 0.00 | 0.00 | 0.00 | 34 | 1010.0 |
| 20260503200536 | 75 | 315 | 2.6 | 4.3 | 0.00 | 0.00 | 0.00 | 35 | 1009.8 |
| 20260503200033 | 75 | 266 | 7.0 | 8.7 | 0.00 | 0.00 | 0.00 | 34 | 1010.0 |
| 20260503195530 | 75 | 284 | 5.2 | 7.0 | 0.00 | 0.00 | 0.00 | 35 | 1010.2 |
| 20260503195027 | 75 | 275 | 5.2 | 6.1 | 0.00 | 0.00 | 0.00 | 35 | 1010.0 |
| 20260503194525 | 74 | 255 | 5.2 | 7.0 | 0.00 | 0.00 | 0.00 | 35 | 1010.0 |
| 20260503194023 | 74 | 259 | 3.5 | 5.2 | 0.00 | 0.00 | 0.00 | 37 | 1010.1 |
| 20260503193521 | 74 | 265 | 4.3 | 6.1 | 0.00 | 0.00 | 0.00 | 38 | 1010.2 |
| 20260503193016 | 74 | 236 | 3.5 | 4.3 | 0.00 | 0.00 | 0.00 | 40 | 1010.3 |
| 20260503192512 | 73 | 270 | 10.4 | 14.8 | 0.00 | 0.00 | 0.00 | 38 | 1010.5 |
| 20260503192008 | 74 | 266 | 4.3 | 6.1 | 0.00 | 0.00 | 0.00 | 39 | 1010.5 |
| 20260503191505 | 74 | 260 | 3.5 | 5.2 | 0.00 | 0.00 | 0.00 | 40 | 1010.2 |
| 20260503191002 | 73 | 262 | 3.5 | 5.2 | 0.00 | 0.00 | 0.00 | 40 | 1010.4 |
| 20260503190459 | 72 | 248 | 4.3 | 6.1 | 0.00 | 0.00 | 0.00 | 41 | 1010.5 |
| 20260503185956 | 72 | 244 | 6.1 | 7.8 | 0.00 | 0.00 | 0.00 | 40 | 1010.7 |
| 20260503185452 | 72 | 267 | 2.6 | 4.3 | 0.00 | 0.00 | 0.00 | 42 | 1010.8 |
| 20260503184952 | 72 | 263 | 7.8 | 9.6 | 0.00 | 0.00 | 0.00 | 41 | 1010.7 |
| 20260503184448 | 72 | 208 | 7.0 | 8.7 | 0.00 | 0.00 | 0.00 | 42 | 1010.9 |
| 20260503183944 | 72 | 3 | 2.6 | 4.3 | 0.00 | 0.00 | 0.00 | 43 | 1010.8 |
| 20260503183441 | 71 | 196 | 3.5 | 5.2 | 0.00 | 0.00 | 0.00 | 44 | 1010.7 |
| 20260503182938 | 70 | 201 | 1.7 | 2.6 | 0.00 | 0.00 | 0.00 | 43 | 1011.1 |
| 20260503182437 | 70 | 197 | 1.7 | 2.6 | 0.00 | 0.00 | 0.00 | 47 | 1011.0 |
| 20260503181934 | 70 | 262 | 4.3 | 6.1 | 0.00 | 0.00 | 0.00 | 45 | 1011.4 |
| 20260503181431 | 69 | 264 | 6.1 | 7.0 | 0.00 | 0.00 | 0.00 | 44 | 1011.2 |
| 20260503180927 | 69 | 149 | 2.6 | 2.6 | 0.00 | 0.00 | 0.00 | 45 | 1011.2 |
| 20260503180427 | 69 | 218 | 7.0 | 9.6 | 0.00 | 0.00 | 0.00 | 45 | 1011.2 |
| 20260503175922 | 69 | 219 | 4.3 | 6.1 | 0.00 | 0.00 | 0.00 | 46 | 1011.4 |
| 20260503175420 | 68 | 265 | 5.2 | 7.8 | 0.00 | 0.00 | 0.00 | 45 | 1011.5 |
| 20260503174915 | 68 | 200 | 5.2 | 7.0 | 0.00 | 0.00 | 0.00 | 46 | 1011.6 |
| 20260503174415 | 68 | 223 | 4.3 | 6.1 | 0.00 | 0.00 | 0.00 | 46 | 1011.7 |
| 20260503173915 | 68 | 190 | 6.1 | 8.7 | 0.00 | 0.00 | 0.00 | 46 | 1011.7 |
| 20260503173411 | 67 | 282 | 3.5 | 6.1 | 0.00 | 0.00 | 0.00 | 47 | 1011.7 |
| 20260503172908 | 67 | 228 | 3.5 | 5.2 | 0.00 | 0.00 | 0.00 | 49 | 1011.9 |
| 20260503172405 | 66 | 198 | 1.7 | 1.7 | 0.00 | 0.00 | 0.00 | 49 | 1011.9 |
| 20260503171901 | 66 | 239 | 1.7 | 1.7 | 0.00 | 0.00 | 0.00 | 48 | 1012.1 |
| 20260503171358 | 65 | 226 | 7.8 | 9.6 | 0.00 | 0.00 | 0.00 | 48 | 1012.2 |
| 20260503170855 | 65 | 266 | 4.3 | 5.2 | 0.00 | 0.00 | 0.00 | 48 | 1012.0 |
| 20260503170352 | 65 | 203 | 5.2 | 7.0 | 0.00 | 0.00 | 0.00 | 49 | 1012.3 |
| 20260503150744 | 59 | 184 | 4.3 | 7.8 | 0.00 | 0.00 | 0.00 | 53 | 1013.6 |
| 20260503150240 | 58 | 215 | 2.6 | 4.3 | 0.00 | 0.00 | 0.00 | 53 | 1013.6 |
| 20260503140205 | 54 | 177 | 2.6 | 5.2 | 0.00 | 0.00 | 0.00 | 57 | 1014.0 |
| 20260503131134 | 53 | 198 | 0.9 | 0.9 | 0.00 | 0.00 | 0.00 | 58 | 1014.4 |
| 20260503130632 | 53 | 177 | 0.9 | 1.7 | 0.00 | 0.00 | 0.00 | 59 | 1014.7 |
| 20260503130129 | 53 | 199 | 2.6 | 5.2 | 0.00 | 0.00 | 0.00 | 60 | 1014.6 |
| 20260503110522 | 53 | 200 | 0.9 | 0.9 | 0.00 | 0.00 | 0.00 | 56 | 1015.6 |
| 20260503090409 | 52 | 234 | 1.7 | 1.7 | 0.00 | 0.00 | 0.00 | 57 | 1017.6 |
| 20260503081335 | 52 | 222 | 0.9 | 0.9 | 0.00 | 0.00 | 0.00 | 55 | 1017.8 |
| 20260503080832 | 52 | 256 | 0.0 | 0.9 | 0.00 | 0.00 | 0.00 | 55 | 1017.8 |
| 20260503080329 | 52 | 224 | 0.0 | 0.0 | 0.00 | 0.00 | 0.00 | 56 | 1018.0 |
| 20260503072800 | 52 | 180 | 1.7 | 2.6 | 0.00 | 0.00 | 0.00 | 55 | 1017.5 |
| 20260503072257 | 52 | 239 | 2.6 | 2.6 | 0.00 | 0.00 | 0.00 | 55 | 1017.7 |
| 20260503071752 | 52 | 212 | 1.7 | 2.6 | 0.00 | 0.00 | 0.00 | 54 | 1017.8 |
| 20260503071250 | 52 | 205 | 1.7 | 1.7 | 0.00 | 0.00 | 0.00 | 54 | 1017.9 |
| 20260503070746 | 52 | 198 | 1.7 | 1.7 | 0.00 | 0.00 | 0.00 | 54 | 1017.7 |
| 20260503070244 | 52 | 204 | 4.3 | 5.2 | 0.00 | 0.00 | 0.00 | 54 | 1018.0 |